TimeCST,TemperatureF,Dew PointF,Humidity,Sea Level PressureIn,VisibilityMPH,Wind Direction,Wind SpeedMPH,Gust SpeedMPH,PrecipitationIn,Events,Conditions,WindDirDegrees,DateUTC
12:51 AM,51.1,43.0,74,30.32,10.0,NE,6.9,-,N/A,,Partly Cloudy,40,2013-01-05 06:51:00
1:51 AM,51.1,45.0,80,30.32,10.0,NE,5.8,-,N/A,,Clear,40,2013-01-05 07:51:00
2:51 AM,52.0,45.0,77,30.29,10.0,NE,6.9,-,N/A,,Clear,40,2013-01-05 08:51:00
3:51 AM,52.0,46.0,80,30.29,10.0,NE,4.6,-,N/A,,Clear,50,2013-01-05 09:51:00
4:51 AM,52.0,46.9,83,30.28,10.0,NE,5.8,-,N/A,,Clear,50,2013-01-05 10:51:00
5:51 AM,53.1,48.0,83,30.28,10.0,NE,6.9,-,N/A,,Clear,50,2013-01-05 11:51:00
6:51 AM,54.0,48.9,83,30.30,10.0,Variable,4.6,-,N/A,,Clear,0,2013-01-05 12:51:00
7:51 AM,54.0,50.0,86,30.30,10.0,NE,5.8,-,N/A,,Clear,50,2013-01-05 13:51:00
8:51 AM,54.0,50.0,86,30.32,10.0,North,4.6,-,N/A,,Clear,10,2013-01-05 14:51:00
9:51 AM,54.0,50.0,86,30.33,10.0,North,6.9,-,N/A,,Clear,360,2013-01-05 15:51:00
10:51 AM,54.0,48.9,83,30.30,10.0,NE,6.9,-,N/A,,Clear,50,2013-01-05 16:51:00
11:51 AM,54.0,50.0,86,30.30,10.0,NNE,4.6,-,N/A,,Overcast,20,2013-01-05 17:51:00
12:51 PM,55.0,51.1,86,30.25,10.0,NE,4.6,-,N/A,,Mostly Cloudy,50,2013-01-05 18:51:00
1:51 PM,55.0,51.1,86,30.24,10.0,North,6.9,-,0.00,,Scattered Clouds,360,2013-01-05 19:51:00
2:51 PM,55.0,51.1,86,30.23,10.0,NE,6.9,-,N/A,,Partly Cloudy,40,2013-01-05 20:51:00
3:51 PM,54.0,51.1,90,30.25,10.0,North,5.8,-,N/A,,Overcast,350,2013-01-05 21:51:00
4:34 PM,53.6,51.8,94,30.23,10.0,ENE,5.8,-,0.00,,Mostly Cloudy,60,2013-01-05 22:34:00
4:51 PM,54.0,51.1,90,30.21,9.0,East,6.9,-,0.00,,Scattered Clouds,80,2013-01-05 22:51:00
5:26 PM,53.6,51.8,94,30.24,10.0,NNW,11.5,-,N/A,,Mostly Cloudy,340,2013-01-05 23:26:00
5:46 PM,53.6,51.8,94,30.24,10.0,North,6.9,-,N/A,,Overcast,10,2013-01-05 23:46:00
5:51 PM,53.1,51.1,93,30.24,10.0,Variable,6.9,-,N/A,,Overcast,0,2013-01-05 23:51:00
6:04 PM,53.6,50.0,88,30.23,10.0,NE,10.4,-,N/A,,Overcast,40,2013-01-06 00:04:00
6:51 PM,53.1,48.9,86,30.25,10.0,NNE,8.1,-,N/A,,Overcast,30,2013-01-06 00:51:00
7:51 PM,54.0,48.9,83,30.25,10.0,NNE,11.5,19.6,N/A,,Overcast,30,2013-01-06 01:51:00
8:51 PM,53.1,48.9,86,30.24,10.0,NNE,10.4,-,N/A,,Overcast,30,2013-01-06 02:51:00
9:43 PM,53.6,48.2,82,30.23,10.0,NE,10.4,17.3,N/A,,Overcast,40,2013-01-06 03:43:00
9:51 PM,54.0,48.9,83,30.23,10.0,NE,9.2,-,N/A,,Mostly Cloudy,40,2013-01-06 03:51:00
10:13 PM,53.6,50.0,88,30.23,10.0,NE,9.2,-,N/A,,Mostly Cloudy,40,2013-01-06 04:13:00
10:26 PM,53.6,50.0,88,30.23,10.0,NE,11.5,-,N/A,,Mostly Cloudy,40,2013-01-06 04:26:00
10:35 PM,53.6,50.0,88,30.22,10.0,NE,10.4,-,N/A,,Scattered Clouds,40,2013-01-06 04:35:00
10:51 PM,54.0,50.0,86,30.22,10.0,NE,9.2,-,N/A,,Clear,50,2013-01-06 04:51:00
11:51 PM,54.0,51.1,90,30.21,10.0,NNE,8.1,-,N/A,,Overcast,30,2013-01-06 05:51:00